When you browse on this site, cookies collect data to enhance your experience and personalize the content and advertising you see.
Visit our Privacy Policy to learn more. By continuing to use the site, you agree to this use of cookies and data.
  • In Hungary
  • List of Countries
  • For 7 days
  • Water Temperature
  • Weather Map
  • News
  • Weather Widgets
  • user-avatar
    Login

    Hourly Weather Godzieby

    Today, 17 September, Tuesday

    Time Temperature Precipitation Wind Pressure Humidity
    00:00 +8°C° 0 mm 5 mps 744 mmHg 73%
    01:00 +8°C° 0 mm 5 mps 744 mmHg 77%
    02:00 +7°C° 0 mm 4 mps 743 mmHg 84%
    03:00 +7°C° 0 mm 4 mps 743 mmHg 86%
    04:00 +6°C° 0 mm 5 mps 743 mmHg 88%
    05:00 +6°C° 0 mm 5 mps 743 mmHg 90%
    06:00 +7°C° 0 mm 5 mps 743 mmHg 86%
    07:00 +8°C° 0 mm 5 mps 743 mmHg 83%
    08:00 +8°C° 0 mm 6 mps 743 mmHg 79%
    09:00 +10°C° 0.1 mm 6 mps 743 mmHg 75%
    10:00 +11°C° 0.1 mm 7 mps 742 mmHg 71%
    11:00 +12°C° 0.1 mm 7 mps 742 mmHg 67%
    12:00 +12°C° 0.4 mm 7 mps 742 mmHg 64%
    13:00 +13°C° 0.4 mm 8 mps 741 mmHg 62%
    14:00 +13°C° 0.4 mm 8 mps 740 mmHg 59%
    15:00 +13°C° 0.4 mm 8 mps 740 mmHg 62%
    16:00 +12°C° 0.4 mm 7 mps 739 mmHg 66%
    17:00 +11°C° 0.4 mm 7 mps 739 mmHg 69%
    18:00 +10°C° 0.3 mm 6 mps 738 mmHg 74%
    19:00 +9°C° 0.3 mm 6 mps 738 mmHg 79%
    20:00 +8°C° 0.3 mm 5 mps 738 mmHg 83%
    21:00 +7°C° 0.5 mm 5 mps 738 mmHg 84%
    22:00 +7°C° 0.5 mm 6 mps 737 mmHg 84%
    23:00 +7°C° 0.5 mm 6 mps 737 mmHg 84%

    Tomorrow, 18 September, Wednesday

    Time Temperature Precipitation Wind Pressure Humidity
    00:00 +5°C° 0.2 mm 6 mps 737 mmHg 85%
    01:00 +5°C° 0.2 mm 6 mps 737 mmHg 86%
    02:00 +4°C° 0.2 mm 6 mps 737 mmHg 87%
    03:00 +4°C° 0 mm 7 mps 737 mmHg 87%
    04:00 +4°C° 0 mm 7 mps 736 mmHg 88%
    05:00 +3°C° 0 mm 7 mps 736 mmHg 88%
    06:00 +4°C° 0.1 mm 7 mps 737 mmHg 86%
    07:00 +5°C° 0.1 mm 8 mps 737 mmHg 85%
    08:00 +6°C° 0.1 mm 8 mps 738 mmHg 83%
    09:00 +7°C° 0.1 mm 8 mps 739 mmHg 77%
    10:00 +10°C° 0.1 mm 8 mps 740 mmHg 71%
    11:00 +11°C° 0.1 mm 8 mps 741 mmHg 65%
    12:00 +11°C° 0.4 mm 8 mps 741 mmHg 67%
    13:00 +11°C° 0.4 mm 9 mps 742 mmHg 68%
    14:00 +11°C° 0.4 mm 10 mps 742 mmHg 70%
    15:00 +11°C° 0.2 mm 9 mps 743 mmHg 69%
    16:00 +11°C° 0.2 mm 8 mps 744 mmHg 68%
    17:00 +11°C° 0.2 mm 7 mps 744 mmHg 67%
    18:00 +10°C° 0 mm 6 mps 745 mmHg 72%
    19:00 +8°C° 0 mm 5 mps 745 mmHg 77%
    20:00 +7°C° 0 mm 4 mps 745 mmHg 82%
    21:00 +6°C° 0 mm 4 mps 746 mmHg 84%
    22:00 +6°C° 0 mm 4 mps 746 mmHg 86%
    23:00 +5°C° 0 mm 4 mps 747 mmHg 89%

    Day after tomorrow, 19 September, Thursday

    Time Temperature Precipitation Wind Pressure Humidity
    00:00 +5°C° 0 mm 4 mps 747 mmHg 90%
    01:00 +5°C° 0 mm 4 mps 747 mmHg 91%
    02:00 +5°C° 0 mm 4 mps 747 mmHg 92%
    03:00 +5°C° 0 mm 4 mps 747 mmHg 92%
    04:00 +3°C° 0 mm 5 mps 747 mmHg 92%
    05:00 +3°C° 0 mm 5 mps 748 mmHg 93%
    06:00 +5°C° 0 mm 5 mps 748 mmHg 91%
    07:00 +6°C° 0 mm 5 mps 748 mmHg 89%
    08:00 +6°C° 0 mm 5 mps 748 mmHg 87%
    09:00 +8°C° 0.1 mm 5 mps 749 mmHg 79%
    10:00 +10°C° 0.1 mm 5 mps 749 mmHg 71%
    11:00 +12°C° 0.1 mm 5 mps 749 mmHg 63%
    12:00 +13°C° 0.4 mm 6 mps 749 mmHg 62%
    13:00 +13°C° 0.4 mm 6 mps 749 mmHg 61%
    14:00 +13°C° 0.4 mm 6 mps 749 mmHg 60%
    15:00 +13°C° 0.4 mm 6 mps 749 mmHg 63%
    16:00 +12°C° 0.4 mm 5 mps 749 mmHg 66%
    17:00 +12°C° 0.4 mm 4 mps 749 mmHg 69%
    18:00 +10°C° 0.3 mm 4 mps 750 mmHg 73%
    19:00 +8°C° 0.3 mm 4 mps 750 mmHg 77%
    20:00 +7°C° 0.3 mm 4 mps 750 mmHg 81%
    21:00 +6°C° 0 mm 4 mps 750 mmHg 84%
    22:00 +5°C° 0 mm 4 mps 751 mmHg 88%
    23:00 +5°C° 0 mm 4 mps 751 mmHg 91%

    20 September, Friday

    Time Temperature Precipitation Wind Pressure Humidity
    00:00 +4°C° 0 mm 4 mps 751 mmHg 92%
    01:00 +4°C° 0 mm 4 mps 751 mmHg 92%
    02:00 +3°C° 0 mm 3 mps 751 mmHg 93%
    03:00 +3°C° 0 mm 3 mps 752 mmHg 93%
    04:00 +3°C° 0 mm 3 mps 752 mmHg 93%
    05:00 +2°C° 0 mm 3 mps 752 mmHg 93%
    06:00 +3°C° 0 mm 3 mps 752 mmHg 90%
    07:00 +4°C° 0 mm 4 mps 752 mmHg 87%
    08:00 +5°C° 0 mm 4 mps 752 mmHg 83%
    09:00 +6°C° 0.1 mm 4 mps 752 mmHg 78%
    10:00 +7°C° 0.1 mm 4 mps 752 mmHg 74%
    11:00 +9°C° 0.1 mm 5 mps 752 mmHg 69%
    12:00 +9°C° 0.1 mm 5 mps 752 mmHg 63%
    13:00 +10°C° 0.1 mm 6 mps 752 mmHg 57%
    14:00 +11°C° 0.1 mm 6 mps 752 mmHg 51%
    15:00 +11°C° 0.1 mm 6 mps 752 mmHg 52%
    16:00 +12°C° 0.1 mm 5 mps 752 mmHg 54%
    17:00 +10°C° 0.1 mm 5 mps 752 mmHg 55%
    18:00 +8°C° 0 mm 4 mps 753 mmHg 61%
    19:00 +7°C° 0 mm 4 mps 753 mmHg 67%
    20:00 +5°C° 0 mm 3 mps 754 mmHg 73%
    21:00 +5°C° 0 mm 3 mps 754 mmHg 74%
    22:00 +5°C° 0 mm 2 mps 754 mmHg 75%
    23:00 +4°C° 0 mm 2 mps 755 mmHg 76%

    21 September, Saturday

    Time Temperature Precipitation Wind Pressure Humidity
    00:00 +4°C° 0 mm 2 mps 755 mmHg 78%
    01:00 +4°C° 0 mm 1 mps 755 mmHg 80%
    02:00 +4°C° 0 mm 1 mps 755 mmHg 83%
    03:00 +4°C° 0 mm 1 mps 755 mmHg 84%
    04:00 +4°C° 0 mm 1 mps 756 mmHg 85%
    05:00 +4°C° 0 mm 1 mps 756 mmHg 86%
    06:00 +5°C° 0 mm 1 mps 756 mmHg 82%
    07:00 +6°C° 0 mm 1 mps 756 mmHg 79%
    08:00 +7°C° 0 mm 1 mps 756 mmHg 75%
    09:00 +8°C° 0 mm 2 mps 756 mmHg 68%
    10:00 +10°C° 0 mm 2 mps 756 mmHg 61%
    11:00 +12°C° 0 mm 3 mps 756 mmHg 53%
    12:00 +13°C° 0 mm 3 mps 756 mmHg 51%
    13:00 +13°C° 0 mm 4 mps 756 mmHg 49%
    14:00 +14°C° 0 mm 4 mps 755 mmHg 47%
    15:00 +14°C° 0 mm 4 mps 755 mmHg 51%
    16:00 +14°C° 0 mm 3 mps 755 mmHg 56%
    17:00 +14°C° 0 mm 3 mps 754 mmHg 60%
    18:00 +13°C° 0 mm 3 mps 754 mmHg 66%
    19:00 +11°C° 0 mm 3 mps 755 mmHg 72%
    20:00 +10°C° 0 mm 3 mps 755 mmHg 78%
    21:00 +10°C° 0 mm 3 mps 755 mmHg 80%
    22:00 +9°C° 0 mm 3 mps 755 mmHg 82%
    23:00 +9°C° 0 mm 3 mps 755 mmHg 83%

    22 September, Sunday

    Time Temperature Precipitation Wind Pressure Humidity
    00:00 +9°C° 0 mm 3 mps 755 mmHg 86%
    01:00 +9°C° 0 mm 3 mps 755 mmHg 89%
    02:00 +8°C° 0 mm 3 mps 755 mmHg 92%
    03:00 +8°C° 0 mm 3 mps 755 mmHg 92%
    04:00 +8°C° 0 mm 3 mps 755 mmHg 93%
    05:00 +8°C° 0 mm 3 mps 755 mmHg 93%
    06:00 +9°C° 0 mm 3 mps 755 mmHg 89%
    07:00 +9°C° 0 mm 3 mps 755 mmHg 85%
    08:00 +10°C° 0 mm 3 mps 755 mmHg 81%
    09:00 +12°C° 0 mm 3 mps 755 mmHg 73%
    10:00 +14°C° 0 mm 3 mps 755 mmHg 65%
    11:00 +17°C° 0 mm 4 mps 755 mmHg 57%
    12:00 +18°C° 0 mm 4 mps 754 mmHg 54%
    13:00 +19°C° 0 mm 4 mps 754 mmHg 51%
    14:00 +20°C° 0 mm 4 mps 754 mmHg 48%
    15:00 +20°C° 0 mm 3 mps 753 mmHg 51%
    16:00 +20°C° 0 mm 2 mps 753 mmHg 53%
    17:00 +19°C° 0 mm 2 mps 753 mmHg 56%
    18:00 +18°C° 0 mm 1 mps 753 mmHg 60%
    19:00 +15°C° 0 mm 1 mps 753 mmHg 65%
    20:00 +13°C° 0 mm 1 mps 753 mmHg 69%
    21:00 +13°C° 0 mm 1 mps 753 mmHg 69%
    22:00 +13°C° 0 mm 2 mps 753 mmHg 69%
    23:00 +13°C° 0 mm 2 mps 753 mmHg 68%
    Show more